| time (UTC) | temp C | wind direction | speed KPH | gust KPH | rain 1hr cm | rain 24hr cm | rain mn cm | humidity % | barometer mb |
| 20260503224510 | 12 | 360 | 12.9 | 29.0 | 0.00 | 0.00 | 0.00 | 59 | 1007.3 |
| 20260503223009 | 12 | 360 | 11.3 | 32.2 | 0.00 | 0.00 | 0.00 | 61 | 1007.5 |
| 20260503221510 | 12 | 360 | 14.5 | 22.5 | 0.00 | 0.00 | 0.00 | 67 | 1007.5 |
| 20260503220009 | 11 | 360 | 9.7 | 16.1 | 0.00 | 0.00 | 0.00 | 70 | 1007.7 |
| 20260503214506 | 11 | 360 | 8.0 | 29.0 | 0.00 | 0.00 | 0.00 | 69 | 1008.0 |
| 20260503213006 | 11 | 360 | 14.5 | 27.4 | 0.00 | 0.00 | 0.00 | 67 | 1007.9 |
| 20260503211505 | 12 | 360 | 11.3 | 32.2 | 0.00 | 0.00 | 0.00 | 68 | 1007.8 |
| 20260503210005 | 12 | 360 | 11.3 | 27.4 | 0.00 | 0.00 | 0.00 | 67 | 1007.7 |
| 20260503204502 | 13 | 275 | 19.3 | 41.8 | 0.00 | 0.00 | 0.00 | 62 | 1007.8 |
| 20260503203001 | 15 | 360 | 17.7 | 40.2 | 0.00 | 0.00 | 0.00 | 51 | 1007.2 |
| 20260503201601 | 15 | 360 | 25.7 | 46.7 | 0.00 | 0.00 | 0.00 | 48 | 1007.3 |
| 20260503200105 | 14 | 360 | 16.1 | 38.6 | 0.00 | 0.00 | 0.00 | 52 | 1007.6 |
| 20260503194556 | 14 | 202 | 17.7 | 32.2 | 0.00 | 0.05 | 0.00 | 51 | 1007.6 |
| 20260503193107 | 15 | 273 | 24.1 | 37.0 | 0.00 | 0.05 | 0.00 | 49 | 1007.8 |
| 20260503191603 | 16 | 360 | 20.9 | 35.4 | 0.00 | 0.05 | 0.00 | 48 | 1007.8 |
| 20260503190050 | 15 | 360 | 16.1 | 33.8 | 0.00 | 0.05 | 0.00 | 50 | 1008.0 |
| 20260503184647 | 15 | 199 | 20.9 | 35.4 | 0.00 | 0.15 | 0.00 | 49 | 1008.1 |
| 20260503183102 | 15 | 360 | 19.3 | 32.2 | 0.00 | 0.15 | 0.00 | 48 | 1008.4 |
| 20260503181603 | 15 | 360 | 16.1 | 41.8 | 0.00 | 0.15 | 0.00 | 48 | 1008.7 |
| 20260503180043 | 14 | 265 | 11.3 | 32.2 | 0.00 | 0.15 | 0.00 | 48 | 1008.8 |
| 20260503174536 | 15 | 360 | 20.9 | 32.2 | 0.00 | 0.15 | 0.00 | 46 | 1009.0 |
| 20260503173033 | 15 | 204 | 16.1 | 37.0 | 0.00 | 0.15 | 0.00 | 46 | 1009.2 |
| 20260503171530 | 14 | 360 | 17.7 | 40.2 | 0.00 | 0.15 | 0.00 | 46 | 1009.4 |
| 20260503100104 | 1 | 179 | 8.0 | 14.5 | 0.00 | 0.15 | 0.00 | 80 | 1012.1 |
| 20260503081533 | 1 | 360 | 4.8 | 9.7 | 0.00 | 0.15 | 0.15 | 72 | 1012.8 |
| 20260503071529 | 1 | 360 | 6.4 | 14.5 | 0.00 | 0.15 | 0.15 | 66 | 1013.0 |
| 20260503054515 | 1 | 360 | 3.2 | 8.0 | 0.00 | 0.15 | 0.15 | 67 | 1013.5 |
| 20260503053012 | 1 | 360 | 3.2 | 6.4 | 0.00 | 0.15 | 0.15 | 69 | 1013.6 |
| 20260503051515 | 1 | 360 | 1.6 | 6.4 | 0.00 | 0.15 | 0.15 | 71 | 1013.6 |
| 20260503050017 | 1 | 360 | 1.6 | 4.8 | 0.00 | 0.15 | 0.15 | 71 | 1013.7 |
| 20260503044512 | 1 | 360 | 1.6 | 6.4 | 0.00 | 0.15 | 0.15 | 71 | 1013.7 |
| 20260503043043 | 1 | 360 | 1.6 | 6.4 | 0.00 | 0.15 | 0.15 | 70 | 1013.8 |
| 20260503041539 | 2 | 360 | 3.2 | 8.0 | 0.00 | 0.15 | 0.15 | 70 | 1013.9 |
| 20260503040041 | 2 | 360 | 3.2 | 9.7 | 0.00 | 0.15 | 0.15 | 70 | 1013.9 |
| 20260503034537 | 2 | 360 | 1.6 | 8.0 | 0.00 | 0.15 | 0.15 | 71 | 1013.9 |
| 20260503033042 | 2 | 360 | 3.2 | 8.0 | 0.00 | 0.15 | 0.15 | 71 | 1013.9 |
| 20260503031534 | 2 | 199 | 3.2 | 9.7 | 0.00 | 0.15 | 0.15 | 70 | 1014.0 |
| 20260503030006 | 2 | 360 | 3.2 | 6.4 | 0.00 | 0.15 | 0.15 | 70 | 1014.1 |
| 20260503024503 | 2 | 360 | 3.2 | 6.4 | 0.00 | 0.15 | 0.15 | 70 | 1014.1 |
| 20260503023102 | 2 | 360 | 3.2 | 6.4 | 0.00 | 0.15 | 0.15 | 69 | 1014.2 |
| 20260503021559 | 2 | 360 | 3.2 | 8.0 | 0.00 | 0.15 | 0.15 | 69 | 1014.3 |
| 20260503020057 | 3 | 360 | 1.6 | 6.4 | 0.00 | 0.15 | 0.15 | 69 | 1014.2 |
| 20260503014556 | 3 | 360 | 1.6 | 6.4 | 0.00 | 0.15 | 0.15 | 68 | 1014.1 |
| 20260503013102 | 3 | 263 | 1.6 | 4.8 | 0.00 | 0.15 | 0.15 | 67 | 1014.2 |
| 20260503011606 | 4 | 265 | 1.6 | 6.4 | 0.00 | 0.15 | 0.15 | 66 | 1014.2 |
| 20260503010119 | 5 | 266 | 0.0 | 4.8 | 0.00 | 0.15 | 0.15 | 65 | 1014.2 |
| 20260503004552 | 5 | 267 | 1.6 | 4.8 | 0.00 | 0.15 | 0.15 | 63 | 1014.1 |
| 20260503003052 | 5 | 267 | 1.6 | 6.4 | 0.00 | 0.15 | 0.15 | 61 | 1014.0 |
| 20260503001550 | 5 | 274 | 3.2 | 6.4 | 0.00 | 0.15 | 0.15 | 59 | 1013.9 |
| 20260503000050 | 5 | 291 | 0.0 | 8.0 | 0.00 | 0.15 | 0.15 | 59 | 1014.0 |
| 20260502234548 | 5 | 290 | 1.6 | 8.0 | 0.00 | 0.15 | 0.15 | 58 | 1013.9 |
| 20260502233048 | 6 | 274 | 4.8 | 11.3 | 0.00 | 0.15 | 0.15 | 58 | 1014.0 |
| 20260502231547 | 6 | 279 | 4.8 | 14.5 | 0.00 | 0.15 | 0.15 | 59 | 1014.0 |
| 20260502230046 | 6 | 269 | 9.7 | 17.7 | 0.00 | 0.15 | 0.15 | 59 | 1013.9 |